TimeCDT,TemperatureF,Dew PointF,Humidity,Sea Level PressureIn,VisibilityMPH,Wind Direction,Wind SpeedMPH,Gust SpeedMPH,PrecipitationIn,Events,Conditions,WindDirDegrees,DateUTC
12:53 AM,10.9,-0.0,61,30.30,10.0,NNW,5.8,-,N/A,,Clear,340,2013-03-17 05:53:00
1:53 AM,9.0,-0.9,64,30.30,10.0,NNW,5.8,-,N/A,,Clear,340,2013-03-17 06:53:00
2:53 AM,9.0,-2.0,61,30.31,10.0,North,4.6,-,N/A,,Clear,10,2013-03-17 07:53:00
3:53 AM,8.1,-2.0,64,30.29,10.0,NNE,4.6,-,N/A,,Clear,30,2013-03-17 08:53:00
4:53 AM,7.0,-2.9,64,30.28,10.0,NE,4.6,-,N/A,,Clear,50,2013-03-17 09:53:00
5:53 AM,6.1,-2.9,67,30.29,10.0,NE,3.5,-,N/A,,Clear,40,2013-03-17 10:53:00
6:53 AM,5.0,-2.9,70,30.29,10.0,NE,3.5,-,N/A,,Clear,40,2013-03-17 11:53:00
7:53 AM,5.0,-2.9,70,30.27,10.0,ENE,5.8,-,N/A,,Clear,70,2013-03-17 12:53:00
8:53 AM,8.1,-2.0,64,30.26,10.0,ESE,5.8,-,N/A,,Clear,110,2013-03-17 13:53:00
9:53 AM,12.0,-0.9,56,30.26,10.0,ESE,10.4,-,N/A,,Clear,120,2013-03-17 14:53:00
10:53 AM,15.1,1.0,54,30.24,10.0,SE,11.5,-,N/A,,Clear,130,2013-03-17 15:53:00
11:53 AM,18.0,3.0,52,30.22,10.0,SE,13.8,18.4,N/A,,Mostly Cloudy,130,2013-03-17 16:53:00
12:53 PM,19.9,5.0,52,30.19,10.0,SSE,13.8,21.9,N/A,,Overcast,160,2013-03-17 17:53:00
1:53 PM,23.0,7.0,50,30.15,10.0,SSE,13.8,19.6,N/A,,Overcast,150,2013-03-17 18:53:00
2:53 PM,24.1,7.0,48,30.10,10.0,SE,12.7,20.7,N/A,,Overcast,140,2013-03-17 19:53:00
3:53 PM,26.1,7.0,44,30.05,10.0,ESE,13.8,-,N/A,,Scattered Clouds,110,2013-03-17 20:53:00
4:53 PM,25.0,8.1,49,30.04,10.0,East,11.5,-,N/A,,Overcast,100,2013-03-17 21:53:00
5:53 PM,26.1,9.0,49,30.03,10.0,SE,13.8,18.4,N/A,,Clear,130,2013-03-17 22:53:00
6:53 PM,26.1,9.0,49,29.99,10.0,ESE,9.2,17.3,N/A,,Overcast,120,2013-03-17 23:53:00
7:53 PM,26.1,10.0,51,29.98,10.0,ESE,10.4,-,N/A,,Overcast,110,2013-03-18 00:53:00
8:53 PM,26.1,12.0,55,29.96,10.0,ESE,5.8,-,N/A,,Overcast,110,2013-03-18 01:53:00
9:53 PM,26.1,12.0,55,29.94,10.0,ESE,11.5,-,N/A,,Overcast,120,2013-03-18 02:53:00
10:51 PM,26.6,14.0,59,29.88,10.0,SE,8.1,-,N/A,,Overcast,140,2013-03-18 03:51:00
10:53 PM,27.0,14.0,58,29.93,10.0,SSE,8.1,-,N/A,,Overcast,150,2013-03-18 03:53:00
11:53 PM,26.1,16.0,66,29.91,10.0,SSE,9.2,-,N/A,,Overcast,150,2013-03-18 04:53:00